Regional Weather Roundup
Issued by NWS

Home | Current Version | Previous Version | Graphics & Text | Print | Product List | Glossary On
Versions: 1 2 3 4 5 6 7 8 9 10 11 12 13 14 15 16 17 18 19 20 21 22 23 24 25 26 27 28 29 30 31 32 33 34 35 36 37 38 39 40 41 42 43 44 45 46 47 48 49 50
000
ASUS43 KIND 131909
RWRIN

WEATHER ROUNDUP FOR INDIANA
NATIONAL WEATHER SERVICE INDIANAPOLIS IN
200 PM EST WED DEC 13 2017

NOTE: "FAIR" INDICATES FEW OR NO CLOUDS BELOW 12,000 FEET WITH NO
SIGNIFICANT WEATHER AND/OR OBSTRUCTIONS TO VISIBILITY.

* - STATION DOES NOT REPORT WEATHER SUCH AS PRECIPITATION OR FOG.

+ - STATION NOT QUALITY CONTROLLED BY THE NATIONAL WEATHER SERVICE.
    USE DATA WITH CAUTION...ESPECIALLY DEWPOINT AND RELATIVE
    HUMIDITY OBSERVATIONS.

INZ001>003-010>013-019-020-132000-
NORTHWEST INDIANA

CITY           SKY/WX    TMP DP  RH WIND       PRES   REMARKS
GARY /AIRPORT/ CLOUDY    39  21  48 SW14G31   29.31F WCI  31
KNOX *+        CLOUDY    34  21  60 S15       29.37F WCI  24
LA PORTE +     CLOUDY    32  18  57 S10       29.34F WCI  24
MICHIGAN CITY+ CLOUDY    34  18  51 S9G17     29.34F WCI  26
MONTICELLO +   MOSUNNY   38  18  43 SW21G30   29.40F WCI  28
RENSSELAER +   CLOUDY    41  14  33 SW23G38   29.36F
VALPARAISO     CLOUDY    38  23  55 SW16G25   29.33F WCI  29

$$

LMZ046-743>745-132000-
SOUTHERN LAKE MICHIGAN

STATION/POSITION TIME  TEMP    WIND        PRES    WAVE
                       AIR SEA DIR/SP/G            HT
                 (UTC) (F)     (DEG/KT/KT) (MB)    (FT)
BURNS HARBOR     1809   35     190/ 18/ 25  994.6
MICHIGAN CITY    1840   34     160/ 16/ 20   N/A

$$

INZ004-005-014>016-021>024-132000-
NORTH CENTRAL INDIANA

CITY           SKY/WX    TMP DP  RH WIND       PRES   REMARKS
ELKHART        CLOUDY    28  12  50 S12G18    29.38F WCI  18
GOSHEN         CLOUDY    30  14  51 S15       29.38F WCI  19
LOGANSPORT +   MOSUNNY   37  19  48 SW24G31   29.42F WCI  26
PERU/GRISSOM   PTSUNNY   37  16  43 SW26      29.41S WCI  24
ROCHESTER +    CLOUDY    36  19  51 S15       29.40F WCI  26
SOUTH BEND     CLOUDY    28  16  60 S10       29.37F WCI  19
WARSAW +       CLOUDY    30  14  51 S7G17     29.42R WCI  23

$$

INZ006>009-017-018-025>027-132000-
NORTHEAST INDIANA

CITY           SKY/WX    TMP DP  RH WIND       PRES   REMARKS
AUBURN +       MOSUNNY   28  14  54 SE8       29.43F WCI  20
FORT WAYNE     CLOUDY    29  16  58 SE14      29.42F WCI  18
HUNTINGTON +   CLOUDY    32  10  40 S12G20    29.42F WCI  23
KENDALLVILLE + CLOUDY    27  14  60 S12       29.41F WCI  16

$$

INZ028-029-035-036-043>045-051>053-132000-
WEST CENTRAL INDIANA

CITY           SKY/WX    TMP DP  RH WIND       PRES   REMARKS
CRAWFORDSVL +  MOSUNNY   37  19  48 SW26G33   29.45  WCI  25
GREENCASTLE +  MOSUNNY   37  19  48 SW8G20    29.48S WCI  31
LAFAYETTE      MOSUNNY   39  21  48 SW21G29   29.42F WCI  29
TERRE HAUTE    CLOUDY    43  19  38 SW21G28   29.51S

$$

INZ030>032-037>040-046>048-054>057-064-065-132000-
CENTRAL INDIANA

CITY           SKY/WX    TMP DP  RH WIND       PRES   REMARKS
ANDERSON       SUNNY     32  10  40 S17G29    29.44  WCI  21
COLUMBUS       PTSUNNY   37   3  23 S25G37    29.49F WCI  26
FRANKFORT +    CLOUDY    41  20  44 SW26G35   29.45S
GREENWOOD *+   CLOUDY    40  16  37 S15G22    29.46F WCI  32
INDIANAPOLIS   CLOUDY    39  16  39 S15       29.46F WCI  31
-EAGLE CREEK   CLOUDY    38  16  40 S15G26    29.43F WCI  29
KOKOMO +       MOSUNNY   35  16  45 S20G31    29.44S WCI  24
MARION +       CLOUDY    32  13  45 S23G31    29.43F WCI  19
MT COMFORT *+  CLOUDY    34  18  51 S16G25    29.44F WCI  23
SHELBYVILLE    CLOUDY    37  11  34 S26G33    29.45F WCI  25
ZIONSVILLE +   CLOUDY    35  15  43 S17G28    29.43F WCI  25

$$

INZ033-034-041-042-049-050-058-059-132000-
EAST CENTRAL INDIANA

CITY           SKY/WX    TMP DP  RH WIND       PRES   REMARKS
MUNCIE         CLOUDY    34  10  37 S23G37    29.41F WCI  22
RICHMOND +     CLOUDY    30  14  51 S22G30    29.49F WCI  17

$$

INZ060-061-067>069-081>083-085>088-132000-
SOUTHWEST INDIANA

CITY           SKY/WX    TMP DP  RH WIND       PRES   REMARKS
EVANSVILLE     SUNNY     47  22  37 S25G39    29.59F
HUNTINGBURG +  MOSUNNY   43  20  39 S23G33    29.57F
WASHINGTON +   SUNNY     43  18  36 SW18G33   29.54F

$$

INZ062-063-066-070>080-084-089>092-132000-
SOUTH CENTRAL AND SOUTHEAST INDIANA

CITY           SKY/WX    TMP DP  RH WIND       PRES   REMARKS
BEDFORD +      CLOUDY    41  14  33 S18G26    29.52F
BLOOMINGTON    CLOUDY    41  18  39 SW16G28   29.49F
MADISON *+     CLOUDY    36   9  32 S22       29.57F WCI  24
NORTH VERNON + CLOUDY    34  10  37 S15G28    29.52F WCI  24
SEYMOUR +      CLOUDY    41  16  36 S22       29.51F

$$





USA.gov is the U.S. government's official web portal to all federal, state and local government web resources and services.